Regional Weather Roundup
Issued by NWS

Home | Current Version | Previous Version | Graphics & Text | Print | Product List | Glossary On
Versions: 1 2 3 4 5 6 7 8 9 10 11 12 13 14 15 16 17 18 19 20 21 22 23 24 25 26 27 28 29 30 31 32 33 34 35 36 37 38 39 40 41 42 43 44 45 46 47 48 49 50
000
ASUS45 KPSR 200710
RWRAZ

ARIZONA HOURLY REGIONAL WEATHER ROUNDUP
NATIONAL WEATHER SERVICE PHOENIX AZ
1200 AM MST FRI JAN 20 2017

NOTE: FAIR INDICATES FEW OR NO CLOUDS BELOW 12,000 FEET WITH NO
SIGNIFICANT WEATHER AND/OR OBSTRUCTIONS TO VISIBILITY.

AZZ001>003-036-200800-
NORTHWEST ARIZONA

CITY           SKY/WX    TMP DP  RH WIND       PRES   REMARKS
BULLHEAD CITY  PTCLDY    50  48  93 CALM      29.80F
KINGMAN        MOCLDY    43  37  79 SW20      29.78F
$$

AZZ004>008-015-016-018-200800-
NORTH CENTRAL ARIZONA

CITY           SKY/WX    TMP DP  RH WIND       PRES   REMARKS
GRAND CANYON   LGT SNOW  28  28 100 SW15      29.76F FOG     WCI  16
WILLIAMS       SNOW      30  28  93 W12       29.78S VSB 1/4 WCI  21
PRESCOTT       PTCLDY    36  32  85 S9        29.81F WCI  29
FLAGSTAFF      LGT SNOW  27  26  96 SW14      29.76F VSB 3/4 WCI  16
PAYSON         FOG       36  34  93 W5G15     29.87R VSB 1/4 WCI  32
PAGE           CLOUDY    38  32  79 SW3       29.70F
$$

AZZ009>014-017-200800-
NORTHEAST ARIZONA

CITY           SKY/WX    TMP DP  RH WIND       PRES   REMARKS
WINSLOW        CLEAR     31  30  96 SE5       29.79F WCI  26
SAINT JOHNS    PTCLDY    35  31  85 SW15      29.77F WCI  25
SHOW LOW       LGT SNOW  32  28  86 SW22G32   29.81F WCI  19
$$

AZZ023-200800-
GREATER PHOENIX AREA

CITY           SKY/WX    TMP DP  RH WIND       PRES   REMARKS
PHOENIX        MOCLDY    51  47  86 CALM      29.84F
BUCKEYE        PTCLDY    45  45 100 N3        29.86F
LUKE AFB       CLOUDY    46 N/A N/A N5        29.84F
DEER VALLEY    CLOUDY    48  47  96 N3        29.84F
SCOTTSDALE     PTCLDY    49  47  93 CALM      29.86S
MESA-GATEWAY   MOCLDY    48  46  93 CALM      29.87S
$$

AZZ027-028-200800-
SOUTHWEST MARICOPA COUNTY AND PINAL COUNTY

CITY           SKY/WX    TMP DP  RH WIND       PRES   REMARKS
CASA GRANDE    MOCLDY    47  42  83 CALM      29.88S
$$

AZZ503-504-507>509-200800-
SOUTHEAST ARIZONA

CITY           SKY/WX    TMP DP  RH WIND       PRES   REMARKS
TUCSON         PTCLDY    54  35  48 S16G28    29.89F
DAVIS-MONTHAN  MOCLDY    51  35  53 SW8       29.88F
NOGALES        MOCLDY    45  30  55 S7        29.93F
SIERRA VISTA   CLOUDY    44  27  52 N3        29.91F
DOUGLAS        CLOUDY    45  30  55 S7        29.92F
SAFFORD        CLOUDY    41  39  93 S5        29.86F
$$

AZZ020-021-025-026-031-200800-
SOUTHWEST ARIZONA

CITY           SKY/WX    TMP DP  RH WIND       PRES   REMARKS
YUMA           MOCLDY    53  40  61 SW7       29.85F
$$

CAZ031-033-041-043-047-048-061-200800-
SOUTHERN CALIFORNIA

CITY           SKY/WX    TMP DP  RH WIND       PRES   REMARKS
DOWNTOWN L.A.  MOCLDY    55  53  93 CALM      29.87F
L.A. AIRPORT   MOCLDY    56  51  84 W13       29.88F
SAN DIEGO      CLOUDY    57  48  72 SE3       29.95F
BURBANK        CLOUDY    51  49  92 E3        29.88F
ONTARIO        RAIN      49  48  97 W8        29.89F
RIVERSIDE      RAIN      50  48  93 S6        29.90F FOG
PALM SPRINGS   PTCLDY    51  47  86 NE5       29.84S
EL CENTRO NAS  CLOUDY    54  40  59 W10       29.89S
IMPERIAL       CLOUDY    55  41  59 W14       29.86F
BLYTHE         MOCLDY    54  40  59 S12       29.82F
NEEDLES        PTCLDY    50  46  86 NW5       29.80S
$$

NVZ020-UTZ003-200800-
SOUTHERN NEVADA-UTAH

CITY           SKY/WX    TMP DP  RH WIND       PRES   REMARKS
LAS VEGAS      PTCLDY    50  31  48 SW9       29.72F
SALT LAKE CITY FOG       29  29 100 W3        29.69S VSB 1/4
$$

NMZ009-TXZ055-200800-
NEW MEXICO-WEST TEXAS

CITY           SKY/WX    TMP DP  RH WIND       PRES   REMARKS
ALBUQUERQUE    PTCLDY    40  30  67 W8        29.75F WCI  34
EL PASO        PTCLDY    45  29  53 S10       29.87S
$$


........................KEY........................
SKY/WX - SKY CONDITION/WEATHER
TMP    - TEMPERATURE IN FAHRENHEIT
DP     - DEW POINT IN FAHRENHEIT
RH     - RELATIVE HUMIDITY IN PERCENT
WIND   - DIRECTION AND SPEED IN MILES PER HOUR (MPH)
VRB    - VARIABLE WIND DIRECTION
PRES   - MEAN SEA LEVEL PRESSURE IN INCHES OF MERCURY
         F - FALLING PRESSURE   R - RISING PRESSURE
         S - STEADY PRESSURE
VSB    - VISIBILITY IN MILES
HX     - HEAT INDEX IN FAHRENHEIT
WCI    - WIND CHILL INDEX IN FAHRENHEIT
TC     - TEMPERATURE IN CELSIUS WHICH IS ALSO KNOWN AS
         TEMPERATURE IN CENTIGRADE
AFB    - AIR FORCE BASE
         LUKE AFB IS LUKE AIR FORCE BASE
         DAVIS-MONTHAN IS DAVIS-MONTHAN AIR FORCE BASE
NAS    - NAVAL AIR STATION
         EL CENTRO NAS IS EL CENTRO NAVAL AIR STATION
N/A    - NOT AVAILABLE




USA.gov is the U.S. government's official web portal to all federal, state and local government web resources and services.